GW6424 Weather Reports


time (UTC)temp
C
wind
direction
speed
KPH
gust
KPH
rain 1hr
cm
rain 24hr
cm
rain mn
cm
humidity
%
barometer
mb
20260505024808 14 327 0.0 0.0 0.00 0.20 0.00 82 1024.3
20260505024314 15 327 0.0 0.0 0.00 0.20 0.00 83 1024.5
20260505023809 15 327 0.0 0.0 0.00 0.20 0.00 81 1024.5
20260505023306 14 327 0.0 0.0 0.00 0.23 0.00 83 1024.6
20260505022806 14 327 0.0 1.6 0.00 0.23 0.00 83 1024.6
20260505022307 14 196 0.0 1.6 0.00 0.33 0.00 83 1024.6
20260505021806 14 333 0.0 0.0 0.00 0.43 0.00 82 1024.7
20260505021307 14 333 0.0 0.0 0.00 0.43 0.00 83 1024.7
20260505020808 14 333 0.0 0.0 0.00 0.43 0.00 85 1024.8
20260505020310 13 333 0.0 0.0 0.00 0.43 0.00 85 1024.8
20260505015858 13 259 0.0 0.0 0.00 0.43 0.00 86 1024.9
20260505015840 13 333 0.0 0.0 0.00 0.43 0.00 85 1024.8
20260505014807 13 154 0.0 0.0 0.00 0.43 0.00 87 1024.9
20260505014307 13 154 0.0 0.0 0.00 0.43 0.00 87 1025.0
20260505013808 13 154 0.0 0.0 0.00 0.43 0.00 86 1025.0
20260505013307 13 154 0.0 0.0 0.00 0.43 0.00 87 1024.9
20260505012807 13 154 0.0 0.0 0.00 0.43 0.00 88 1024.6
20260505012306 12 154 0.0 0.0 0.00 0.43 0.00 88 1025.0
20260505011805 12 154 0.0 0.0 0.00 0.43 0.00 89 1024.9
20260505011306 12 154 0.0 0.0 0.00 0.43 0.00 89 1024.9
20260505010807 12 154 0.0 1.6 0.00 0.43 0.00 89 1024.9
20260505010308 12 154 0.0 1.6 0.00 0.43 0.00 90 1024.9
20260505005814 12 313 0.0 0.0 0.00 0.43 0.00 90 1024.9
20260505005549 12 313 0.0 0.0 0.00 0.43 0.00 91 1024.9
20260505004806 12 313 0.0 0.0 0.00 0.43 0.00 91 1024.9
20260505004541 12 313 0.0 0.0 0.00 0.43 0.00 91 1024.9
20260505003808 12 313 0.0 0.0 0.00 0.43 0.00 92 1024.8
20260505003308 12 273 0.0 0.0 0.00 0.43 0.00 93 1024.8
20260505002807 11 306 0.0 1.6 0.00 0.43 0.00 93 1024.7
20260505002307 11 315 0.0 1.6 0.00 0.43 0.00 94 1024.7
20260505001820 11 309 0.0 0.0 0.00 0.43 0.00 94 1024.3
20260505001807 11 309 0.0 0.0 0.00 0.43 0.00 94 1024.3
20260505000746 11 313 0.0 0.0 0.00 0.43 0.00 95 1024.1
20260505000233 11 313 0.0 0.0 0.00 0.43 0.00 95 1024.6
20260504235734 11 313 0.0 1.6 0.00 0.43 0.00 95 1024.6
20260504235236 11 294 0.0 1.6 0.00 0.43 0.00 96 1024.6
20260504235020 11 348 0.0 0.0 0.00 0.43 0.00 96 1024.5
20260504234524 11 348 0.0 0.0 0.00 0.43 0.00 96 1024.5
20260504233734 11 348 0.0 1.6 0.00 0.43 0.00 96 1024.5
20260504233234 11 348 0.0 1.6 0.00 0.43 0.00 96 1024.5
20260504232809 10 137 0.0 0.0 0.00 0.43 0.00 96 1024.5
20260504231733 10 137 0.0 0.0 0.00 0.43 0.00 96 1024.5
20260504231239 10 137 0.0 1.6 0.00 0.43 0.00 96 1024.3
20260504230735 10 137 0.0 1.6 0.00 0.43 0.00 96 1024.3
20260504230235 10 121 0.0 0.0 0.00 0.43 0.00 96 1024.3
20260504225736 10 121 0.0 0.0 0.00 0.43 0.00 96 1024.3
20260504225234 10 121 0.0 0.0 0.00 0.46 0.00 97 1024.1
20260504224733 10 121 0.0 0.0 0.00 0.46 0.00 97 1024.1
20260504224537 10 121 0.0 0.0 0.00 0.46 0.00 97 1024.0
20260504224532 10 121 0.0 0.0 0.00 0.46 0.00 97 1024.0
20260504223233 10 121 0.0 0.0 0.00 0.46 0.00 97 1023.9
20260504222734 10 121 0.0 0.0 0.00 0.46 0.00 97 1023.9
20260504222235 10 121 0.0 0.0 0.00 0.46 0.00 97 1023.8
20260504221735 9 121 0.0 0.0 0.00 0.46 0.00 97 1023.7
20260504221234 9 121 0.0 0.0 0.00 0.46 0.00 97 1023.7
20260504220733 9 121 0.0 0.0 0.00 0.46 0.00 97 1023.7
20260504220233 8 121 0.0 0.0 0.00 0.46 0.00 97 1023.6
20260504215733 8 121 0.0 0.0 0.00 0.46 0.00 97 1023.6
20260504215233 9 121 0.0 0.0 0.00 0.46 0.00 96 1023.5
20260504215024 9 121 0.0 0.0 0.00 0.46 0.00 97 1023.5
20260504214234 8 121 0.0 0.0 0.00 0.46 0.00 97 1023.4
20260504213732 8 121 0.0 0.0 0.00 0.46 0.00 97 1023.2
20260504213232 8 121 0.0 0.0 0.00 0.46 0.00 96 1023.2
20260504212738 8 121 0.0 0.0 0.00 0.48 0.00 97 1023.1
20260504212232 8 121 0.0 0.0 0.00 0.48 0.00 97 1022.6
20260504211715 8 121 0.0 0.0 0.00 0.48 0.00 97 1023.1
20260504211206 8 121 0.0 0.0 0.00 0.48 0.00 97 1023.1
20260504210707 8 121 0.0 0.0 0.00 0.51 0.00 97 1023.1
20260504210209 8 121 0.0 0.0 0.00 0.51 0.00 96 1023.0
20260504205947 8 121 0.0 0.0 0.00 0.51 0.00 97 1022.9
20260504205208 8 121 0.0 0.0 0.00 0.51 0.00 96 1022.9
20260504204710 8 121 0.0 0.0 0.00 0.51 0.00 96 1022.8
20260504204207 8 121 0.0 0.0 0.00 0.53 0.00 96 1022.8
20260504203724 8 121 0.0 0.0 0.00 0.53 0.00 96 1022.7
20260504202707 8 121 0.0 0.0 0.00 0.53 0.00 97 1022.6
20260504202207 8 121 0.0 0.0 0.00 0.53 0.00 96 1022.5
20260504201746 8 121 0.0 0.0 0.00 0.53 0.00 96 1022.5
20260504201727 8 121 0.0 0.0 0.00 0.53 0.00 96 1022.5
20260504200707 8 121 0.0 0.0 0.00 0.53 0.00 96 1022.4
20260504200209 8 121 0.0 0.0 0.00 0.53 0.00 96 1022.4
20260504195709 8 121 0.0 0.0 0.00 0.53 0.00 96 1021.8
20260504195206 8 121 0.0 0.0 0.00 0.53 0.00 96 1022.4
20260504194708 8 121 0.0 0.0 0.00 0.53 0.00 96 1022.3
20260504194207 8 121 0.0 0.0 0.00 0.53 0.00 96 1022.3
20260504193707 8 121 0.0 0.0 0.00 0.53 0.00 96 1022.3
20260504193212 8 121 0.0 0.0 0.00 0.53 0.00 96 1022.3
20260504192714 8 121 0.0 0.0 0.00 0.53 0.00 96 1022.2
20260504192206 8 121 0.0 0.0 0.00 0.53 0.00 96 1022.2
20260504191707 8 121 0.0 0.0 0.00 0.53 0.00 96 1022.2
20260504191206 8 121 0.0 0.0 0.00 0.53 0.00 96 1022.0
20260504190708 8 121 0.0 0.0 0.00 0.53 0.00 96 1022.0
20260504190241 8 121 0.0 0.0 0.00 0.53 0.00 96 1022.2
20260504190224 8 121 0.0 0.0 0.00 0.53 0.00 96 1022.0
20260504185456 8 121 0.0 0.0 0.00 0.53 0.00 96 1022.0
20260504184742 8 121 0.0 0.0 0.00 0.53 0.00 96 1021.8
20260504184728 8 121 0.0 0.0 0.00 0.53 0.00 96 1021.9
20260504183958 8 121 0.0 0.0 0.00 0.53 0.00 96 1021.8
20260504183200 8 121 0.0 0.0 0.00 0.56 0.00 96 1021.0
20260504182936 8 121 0.0 0.0 0.00 0.56 0.00 96 1020.9
20260504182133 7 121 0.0 0.0 0.00 0.56 0.00 96 1021.6
20260504182025 7 121 0.0 0.0 0.00 0.56 0.00 96 1021.7
20260504182021 7 121 0.0 0.0 0.00 0.56 0.00 96 1021.7
20260504182015 7 121 0.0 0.0 0.00 0.56 0.00 96 1021.7
20260504180136 8 121 0.0 0.0 0.00 0.58 0.00 96 1021.8
20260504175635 8 121 0.0 0.0 0.00 0.61 0.00 96 1021.8
20260504175133 8 121 0.0 0.0 0.00 0.61 0.00 96 1021.8
20260504174930 8 121 0.0 0.0 0.00 0.61 0.00 96 1021.8
20260504174135 8 121 0.0 0.0 0.00 0.61 0.00 96 1021.8
20260504173635 8 121 0.0 0.0 0.00 0.61 0.00 96 1021.8
20260504173137 8 121 0.0 0.0 0.00 0.61 0.00 96 1021.9
20260504172715 7 121 0.0 0.0 0.00 0.61 0.00 96 1022.0
20260504172657 8 121 0.0 0.0 0.00 0.61 0.00 96 1021.9
20260504171926 8 121 0.0 0.0 0.00 0.61 0.00 96 1022.2
20260504171134 8 121 0.0 0.0 0.00 0.61 0.00 96 1022.0
20260504170914 8 121 0.0 0.0 0.00 0.61 0.00 96 1022.0
20260504170137 8 121 0.0 0.0 0.00 0.61 0.00 96 1022.0
20260504160421 8 121 0.0 0.0 0.00 0.61 0.00 96 1022.2
20260504150607 8 121 0.0 0.0 0.00 0.61 0.00 96 1021.8
20260504150107 8 121 0.0 0.0 0.00 0.61 0.00 96 1021.8
20260504141105 8 121 0.0 0.0 0.00 0.61 0.61 96 1021.6
20260504140607 8 121 0.0 0.0 0.00 0.61 0.61 96 1021.7
20260504140342 8 121 0.0 0.0 0.00 0.61 0.61 96 1021.7
20260504130606 8 121 0.0 0.0 0.00 0.61 0.61 95 1021.6
20260504130113 8 121 0.0 0.0 0.00 0.61 0.61 95 1021.6
20260504110533 9 121 0.0 0.0 0.00 0.61 0.61 94 1021.0
20260504100557 10 121 0.0 0.0 0.00 0.91 0.61 94 1019.6
20260504100544 9 121 0.0 0.0 0.00 0.91 0.61 94 1020.1
20260504082007 12 121 0.0 0.0 0.00 0.97 0.61 93 1018.9
20260504081749 12 121 0.0 0.0 0.00 0.97 0.61 93 1018.7
20260504081015 12 121 0.0 0.0 0.00 0.97 0.61 93 1018.7
20260504080507 12 121 0.0 0.0 0.00 0.97 0.61 93 1018.6
20260504050509 12 107 0.0 0.0 0.05 0.97 0.61 95 1017.1
20260504050250 12 107 0.0 0.0 0.08 0.97 0.61 95 1017.1
20260504045508 12 107 0.0 0.0 0.13 0.97 0.61 95 1017.0
20260504045007 12 107 0.0 1.6 0.13 0.97 0.61 95 1017.0
20260504044508 12 107 0.0 1.6 0.13 0.97 0.61 95 1016.9
20260504044009 12 5 0.0 0.0 0.13 0.97 0.61 95 1016.9
20260504043510 12 5 0.0 0.0 0.10 0.94 0.58 95 1016.8
20260504043011 12 5 0.0 0.0 0.13 0.94 0.56 95 1016.8
20260504042435 12 194 0.0 0.0 0.10 0.91 0.56 95 1016.8
20260504041937 12 194 0.0 1.6 0.10 0.91 0.56 95 1016.8
20260504041437 12 194 0.0 1.6 0.10 0.91 0.56 95 1016.9
20260504040936 12 277 0.0 0.0 0.10 0.91 0.53 94 1016.9
20260504040719 12 277 0.0 1.6 0.10 0.89 0.51 95 1016.9
20260504035934 12 277 0.0 1.6 0.08 0.89 0.51 95 1016.9
20260504035734 12 103 0.0 1.6 0.05 0.84 0.48 95 1016.9
20260504035225 12 154 0.0 0.0 0.08 0.84 0.48 94 1016.8
20260504034436 12 130 0.0 1.6 0.08 0.84 0.48 94 1016.9
20260504033935 12 130 0.0 1.6 0.08 0.84 0.48 94 1016.8
20260504033718 13 132 0.0 0.0 0.10 0.84 0.46 95 1016.8
20260504033218 12 132 0.0 0.0 0.10 0.81 0.46 94 1016.8
20260504032442 12 132 1.6 9.7 0.15 0.81 0.46 94 1016.8
20260504031936 13 97 0.0 9.7 0.28 0.81 0.46 95 1016.8
20260504031513 12 161 1.6 3.2 0.28 0.81 0.46 94 1016.8
20260504031456 12 344 1.6 3.2 0.28 0.81 0.46 95 1016.8
20260504030437 12 111 0.0 1.6 0.25 0.79 0.43 94 1016.8
20260504025934 12 182 0.0 1.6 0.25 0.79 0.43 93 1016.9
20260504025434 12 126 0.0 1.6 0.23 0.79 0.41 94 1017.2